Wetterdaten: Donnerstag, 17.03.2016
Datum Zeit Temperatur Luftfeuchte Luftdruck Regen Wind Richtung Richtung Sonnenschein ET UV Solar Taupunkt Windchill Windben
17.03.2016 00:00 2,1 C 78 % 1029,2 hPa 0,0 l/m 0,5 km/h (0 Bft) NO 41 0 min 0,000 mm 0,0 UV-I 0 W/m -1,3 C 2,1 C 3,2 km/h (1 Bft)
17.03.2016 00:05 1,9 C 79 % 1029,2 hPa 0,0 l/m 1,9 km/h (1 Bft) NO 39 0 min 0,000 mm 0,0 UV-I 0 W/m -1,3 C 1,9 C 4,8 km/h (1 Bft)
17.03.2016 00:10 1,8 C 79 % 1029,2 hPa 0,0 l/m 0,3 km/h (0 Bft) NO 48 0 min 0,000 mm 0,0 UV-I 0 W/m -1,4 C 1,8 C 3,2 km/h (1 Bft)
17.03.2016 00:15 1,7 C 80 % 1029,2 hPa 0,0 l/m 0,1 km/h (0 Bft) O-NO 74 0 min 0,000 mm 0,0 UV-I 0 W/m -1,4 C 1,7 C 3,2 km/h (1 Bft)
17.03.2016 00:20 1,6 C 80 % 1029,2 hPa 0,0 l/m 0,0 km/h (0 Bft) O-NO 74 0 min 0,000 mm 0,0 UV-I 0 W/m -1,5 C 1,6 C 0,0 km/h (0 Bft)
17.03.2016 00:25 1,4 C 80 % 1029,2 hPa 0,0 l/m 0,4 km/h (0 Bft) O-NO 67 0 min 0,000 mm 0,0 UV-I 0 W/m -1,7 C 1,4 C 3,2 km/h (1 Bft)
17.03.2016 00:30 1,3 C 80 % 1029,2 hPa 0,0 l/m 0,7 km/h (0 Bft) NO 53 0 min 0,000 mm 0,0 UV-I 0 W/m -1,8 C 1,3 C 3,2 km/h (1 Bft)
17.03.2016 00:35 1,2 C 81 % 1029,3 hPa 0,0 l/m 1,0 km/h (0 Bft) NO 46 0 min 0,000 mm 0,0 UV-I 0 W/m -1,7 C 1,2 C 3,2 km/h (1 Bft)
17.03.2016 00:40 1,1 C 81 % 1029,2 hPa 0,0 l/m 1,2 km/h (1 Bft) N-NO 32 0 min 0,000 mm 0,0 UV-I 0 W/m -1,8 C 1,1 C 6,4 km/h (2 Bft)
17.03.2016 00:45 1,1 C 83 % 1029,3 hPa 0,0 l/m 0,5 km/h (0 Bft) O-NO 59 0 min 0,000 mm 0,0 UV-I 0 W/m -1,5 C 1,1 C 4,8 km/h (1 Bft)
17.03.2016 00:50 1,0 C 81 % 1029,3 hPa 0,0 l/m 0,0 km/h (0 Bft) O-NO 59 0 min 0,000 mm 0,0 UV-I 0 W/m -1,9 C 1,0 C 0,0 km/h (0 Bft)
17.03.2016 00:55 0,8 C 81 % 1029,2 hPa 0,0 l/m 0,0 km/h (0 Bft) O-NO 59 0 min 0,000 mm 0,0 UV-I 0 W/m -2,1 C 0,8 C 0,0 km/h (0 Bft)
17.03.2016 01:00 0,6 C 81 % 1029,3 hPa 0,0 l/m 0,0 km/h (0 Bft) O-NO 59 0 min 0,000 mm 0,0 UV-I 0 W/m -2,3 C 0,6 C 0,0 km/h (0 Bft)
17.03.2016 01:05 0,4 C 82 % 1029,2 hPa 0,0 l/m 0,0 km/h (0 Bft) O-NO 59 0 min 0,000 mm 0,0 UV-I 0 W/m -2,3 C 0,4 C 0,0 km/h (0 Bft)
17.03.2016 01:10 0,2 C 83 % 1029,2 hPa 0,0 l/m 1,7 km/h (1 Bft) N-NO 25 0 min 0,000 mm 0,0 UV-I 0 W/m -2,3 C 0,2 C 4,8 km/h (1 Bft)
17.03.2016 01:15 0,1 C 83 % 1029,2 hPa 0,0 l/m 0,9 km/h (0 Bft) N-NO 25 0 min 0,000 mm 0,0 UV-I 0 W/m -2,4 C 0,1 C 3,2 km/h (1 Bft)
17.03.2016 01:20 -0,1 C 84 % 1029,1 hPa 0,0 l/m 0,0 km/h (0 Bft) N-NO 25 0 min 0,000 mm 0,0 UV-I 0 W/m -2,5 C -0,1 C 0,0 km/h (0 Bft)
17.03.2016 01:25 -0,1 C 85 % 1029,2 hPa 0,0 l/m 0,0 km/h (0 Bft) N-NO 25 0 min 0,000 mm 0,0 UV-I 0 W/m -2,3 C -0,1 C 0,0 km/h (0 Bft)
17.03.2016 01:30 -0,2 C 85 % 1029,2 hPa 0,0 l/m 0,0 km/h (0 Bft) N-NO 25 0 min 0,000 mm 0,0 UV-I 0 W/m -2,4 C -0,2 C 0,0 km/h (0 Bft)
17.03.2016 01:35 -0,3 C 85 % 1029,2 hPa 0,0 l/m 0,0 km/h (0 Bft) N-NO 25 0 min 0,000 mm 0,0 UV-I 0 W/m -2,5 C -0,3 C 0,0 km/h (0 Bft)
17.03.2016 01:40 -0,4 C 85 % 1029,1 hPa 0,0 l/m 0,0 km/h (0 Bft) N-NO 25 0 min 0,000 mm 0,0 UV-I 0 W/m -2,6 C -0,4 C 0,0 km/h (0 Bft)
17.03.2016 01:45 -0,5 C 85 % 1029,2 hPa 0,0 l/m 0,0 km/h (0 Bft) N-NO 25 0 min 0,000 mm 0,0 UV-I 0 W/m -2,7 C -0,5 C 0,0 km/h (0 Bft)
17.03.2016 01:50 -0,6 C 85 % 1029,1 hPa 0,0 l/m 0,0 km/h (0 Bft) N-NO 25 0 min 0,000 mm 0,0 UV-I 0 W/m -2,8 C -0,6 C 0,0 km/h (0 Bft)
17.03.2016 01:55 -0,7 C 86 % 1029,1 hPa 0,0 l/m 0,0 km/h (0 Bft) N-NO 25 0 min 0,000 mm 0,0 UV-I 0 W/m -2,7 C -0,7 C 0,0 km/h (0 Bft)
17.03.2016 02:00 -0,8 C 86 % 1028,9 hPa 0,0 l/m 0,0 km/h (0 Bft) N-NO 25 0 min 0,000 mm 0,0 UV-I 0 W/m -2,8 C -0,8 C 0,0 km/h (0 Bft)
17.03.2016 02:05 -0,9 C 85 % 1028,9 hPa 0,0 l/m 0,0 km/h (0 Bft) N-NO 25 0 min 0,000 mm 0,0 UV-I 0 W/m -3,1 C -0,9 C 1,6 km/h (1 Bft)
17.03.2016 02:10 -0,9 C 87 % 1028,9 hPa 0,0 l/m 0,2 km/h (0 Bft) N-NO 25 0 min 0,000 mm 0,0 UV-I 0 W/m -2,8 C -0,9 C 1,6 km/h (1 Bft)
17.03.2016 02:15 -0,9 C 87 % 1028,9 hPa 0,0 l/m 1,6 km/h (1 Bft) N-NO 28 0 min 0,000 mm 0,0 UV-I 0 W/m -2,8 C -0,9 C 3,2 km/h (1 Bft)
17.03.2016 02:20 -0,8 C 87 % 1028,9 hPa 0,0 l/m 0,4 km/h (0 Bft) N-NO 28 0 min 0,000 mm 0,0 UV-I 0 W/m -2,7 C -0,8 C 1,6 km/h (1 Bft)
17.03.2016 02:25 -0,7 C 87 % 1028,8 hPa 0,0 l/m 0,0 km/h (0 Bft) N-NO 28 0 min 0,000 mm 0,0 UV-I 0 W/m -2,6 C -0,7 C 1,6 km/h (1 Bft)
17.03.2016 02:30 -0,8 C 86 % 1028,8 hPa 0,0 l/m 0,1 km/h (0 Bft) N-NO 28 0 min 0,000 mm 0,0 UV-I 0 W/m -2,8 C -0,8 C 1,6 km/h (1 Bft)
17.03.2016 02:35 -0,9 C 86 % 1028,8 hPa 0,0 l/m 0,5 km/h (0 Bft) N 360 0 min 0,000 mm 0,0 UV-I 0 W/m -2,9 C -0,9 C 3,2 km/h (1 Bft)
17.03.2016 02:40 -1,1 C 86 % 1028,8 hPa 0,0 l/m 0,0 km/h (0 Bft) N 360 0 min 0,000 mm 0,0 UV-I 0 W/m -3,1 C -1,1 C 0,0 km/h (0 Bft)
17.03.2016 02:45 -1,2 C 86 % 1028,8 hPa 0,0 l/m 0,0 km/h (0 Bft) N 360 0 min 0,000 mm 0,0 UV-I 0 W/m -3,2 C -1,2 C 0,0 km/h (0 Bft)
17.03.2016 02:50 -1,3 C 87 % 1028,8 hPa 0,0 l/m 0,0 km/h (0 Bft) N 360 0 min 0,000 mm 0,0 UV-I 0 W/m -3,2 C -1,3 C 0,0 km/h (0 Bft)
17.03.2016 02:55 -1,4 C 86 % 1028,8 hPa 0,0 l/m 0,0 km/h (0 Bft) N 360 0 min 0,000 mm 0,0 UV-I 0 W/m -3,4 C -1,4 C 0,0 km/h (0 Bft)
17.03.2016 03:00 -1,6 C 86 % 1028,8 hPa 0,0 l/m 0,0 km/h (0 Bft) N 360 0 min 0,000 mm 0,0 UV-I 0 W/m -3,6 C -1,6 C 0,0 km/h (0 Bft)
17.03.2016 03:05 -1,7 C 87 % 1028,8 hPa 0,0 l/m 0,0 km/h (0 Bft) N 360 0 min 0,000 mm 0,0 UV-I 0 W/m -3,6 C -1,7 C 0,0 km/h (0 Bft)
17.03.2016 03:10 -1,7 C 89 % 1028,8 hPa 0,0 l/m 0,0 km/h (0 Bft) N 360 0 min 0,000 mm 0,0 UV-I 0 W/m -3,3 C -1,7 C 0,0 km/h (0 Bft)
17.03.2016 03:15 -1,7 C 88 % 1028,7 hPa 0,0 l/m 0,0 km/h (0 Bft) N 360 0 min 0,000 mm 0,0 UV-I 0 W/m -3,4 C -1,7 C 0,0 km/h (0 Bft)
17.03.2016 03:20 -1,7 C 88 % 1028,7 hPa 0,0 l/m 0,0 km/h (0 Bft) N 360 0 min 0,000 mm 0,0 UV-I 0 W/m -3,4 C -1,7 C 0,0 km/h (0 Bft)
17.03.2016 03:25 -1,8 C 88 % 1028,7 hPa 0,0 l/m 0,0 km/h (0 Bft) N 360 0 min 0,000 mm 0,0 UV-I 0 W/m -3,5 C -1,8 C 0,0 km/h (0 Bft)
17.03.2016 03:30 -1,8 C 89 % 1028,6 hPa 0,0 l/m 0,1 km/h (0 Bft) N 360 0 min 0,000 mm 0,0 UV-I 0 W/m -3,4 C -1,8 C 1,6 km/h (1 Bft)
17.03.2016 03:35 -1,8 C 89 % 1028,6 hPa 0,0 l/m 0,1 km/h (0 Bft) N 360 0 min 0,000 mm 0,0 UV-I 0 W/m -3,4 C -1,8 C 3,2 km/h (1 Bft)
17.03.2016 03:40 -1,8 C 89 % 1028,6 hPa 0,0 l/m 0,1 km/h (0 Bft) N 360 0 min 0,000 mm 0,0 UV-I 0 W/m -3,4 C -1,8 C 3,2 km/h (1 Bft)
17.03.2016 03:45 -1,9 C 89 % 1028,6 hPa 0,0 l/m 0,9 km/h (0 Bft) N 360 0 min 0,000 mm 0,0 UV-I 0 W/m -3,5 C -1,9 C 3,2 km/h (1 Bft)
17.03.2016 03:50 -1,8 C 89 % 1028,7 hPa 0,0 l/m 0,9 km/h (0 Bft) N 360 0 min 0,000 mm 0,0 UV-I 0 W/m -3,4 C -1,8 C 3,2 km/h (1 Bft)
17.03.2016 03:55 -1,8 C 90 % 1028,7 hPa 0,0 l/m 0,0 km/h (0 Bft) N 360 0 min 0,000 mm 0,0 UV-I 0 W/m -3,2 C -1,8 C 1,6 km/h (1 Bft)
17.03.2016 04:00 -1,6 C 90 % 1028,6 hPa 0,0 l/m 0,3 km/h (0 Bft) N 360 0 min 0,000 mm 0,0 UV-I 0 W/m -3,0 C -1,6 C 1,6 km/h (1 Bft)
17.03.2016 04:05 -1,4 C 90 % 1028,6 hPa 0,0 l/m 0,0 km/h (0 Bft) N 360 0 min 0,000 mm 0,0 UV-I 0 W/m -2,8 C -1,4 C 0,0 km/h (0 Bft)
17.03.2016 04:10 -1,3 C 90 % 1028,7 hPa 0,0 l/m 0,0 km/h (0 Bft) N 360 0 min 0,000 mm 0,0 UV-I 0 W/m -2,7 C -1,3 C 0,0 km/h (0 Bft)
17.03.2016 04:15 -1,2 C 89 % 1028,6 hPa 0,0 l/m 0,2 km/h (0 Bft) N 360 0 min 0,000 mm 0,0 UV-I 0 W/m -2,8 C -1,2 C 1,6 km/h (1 Bft)
17.03.2016 04:20 -1,1 C 89 % 1028,6 hPa 0,0 l/m 0,0 km/h (0 Bft) N 360 0 min 0,000 mm 0,0 UV-I 0 W/m -2,7 C -1,1 C 1,6 km/h (1 Bft)
17.03.2016 04:25 -1,1 C 89 % 1028,6 hPa 0,0 l/m 0,0 km/h (0 Bft) N 360 0 min 0,000 mm 0,0 UV-I 0 W/m -2,7 C -1,1 C 0,0 km/h (0 Bft)
17.03.2016 04:30 -1,1 C 88 % 1028,5 hPa 0,0 l/m 0,0 km/h (0 Bft) N 360 0 min 0,000 mm 0,0 UV-I 0 W/m -2,8 C -1,1 C 0,0 km/h (0 Bft)
17.03.2016 04:35 -1,1 C 89 % 1028,6 hPa 0,0 l/m 0,0 km/h (0 Bft) N 360 0 min 0,000 mm 0,0 UV-I 0 W/m -2,7 C -1,1 C 0,0 km/h (0 Bft)
17.03.2016 04:40 -1,1 C 89 % 1028,5 hPa 0,0 l/m 0,0 km/h (0 Bft) N 360 0 min 0,000 mm 0,0 UV-I 0 W/m -2,7 C -1,1 C 0,0 km/h (0 Bft)
17.03.2016 04:45 -1,2 C 89 % 1028,6 hPa 0,0 l/m 0,0 km/h (0 Bft) N 360 0 min 0,000 mm 0,0 UV-I 0 W/m -2,8 C -1,2 C 0,0 km/h (0 Bft)
17.03.2016 04:50 -1,2 C 88 % 1028,5 hPa 0,0 l/m 0,0 km/h (0 Bft) N 360 0 min 0,000 mm 0,0 UV-I 0 W/m -2,9 C -1,2 C 0,0 km/h (0 Bft)
17.03.2016 04:55 -1,3 C 88 % 1028,5 hPa 0,0 l/m 0,0 km/h (0 Bft) N 360 0 min 0,000 mm 0,0 UV-I 0 W/m -3,0 C -1,3 C 0,0 km/h (0 Bft)
17.03.2016 05:00 -1,4 C 89 % 1028,5 hPa 0,0 l/m 0,0 km/h (0 Bft) N 360 0 min 0,000 mm 0,0 UV-I 0 W/m -3,0 C -1,4 C 0,0 km/h (0 Bft)
17.03.2016 05:05 -1,4 C 89 % 1028,6 hPa 0,0 l/m 0,0 km/h (0 Bft) N 360 0 min 0,000 mm 0,0 UV-I 0 W/m -3,0 C -1,4 C 0,0 km/h (0 Bft)
17.03.2016 05:10 -1,5 C 88 % 1028,6 hPa 0,0 l/m 0,0 km/h (0 Bft) N 360 0 min 0,000 mm 0,0 UV-I 0 W/m -3,2 C -1,5 C 0,0 km/h (0 Bft)
17.03.2016 05:15 -1,6 C 88 % 1028,6 hPa 0,0 l/m 0,0 km/h (0 Bft) N 360 0 min 0,000 mm 0,0 UV-I 0 W/m -3,3 C -1,6 C 0,0 km/h (0 Bft)
17.03.2016 05:20 -1,8 C 88 % 1028,7 hPa 0,0 l/m 0,0 km/h (0 Bft) N 360 0 min 0,000 mm 0,0 UV-I 0 W/m -3,5 C -1,8 C 0,0 km/h (0 Bft)
17.03.2016 05:25 -1,9 C 88 % 1028,7 hPa 0,0 l/m 0,0 km/h (0 Bft) N 360 0 min 0,000 mm 0,0 UV-I 0 W/m -3,6 C -1,9 C 0,0 km/h (0 Bft)
17.03.2016 05:30 -2,1 C 88 % 1028,7 hPa 0,0 l/m 0,0 km/h (0 Bft) N 360 0 min 0,000 mm 0,0 UV-I 0 W/m -3,8 C -2,1 C 0,0 km/h (0 Bft)
17.03.2016 05:35 -2,2 C 89 % 1028,7 hPa 0,0 l/m 0,0 km/h (0 Bft) N 360 0 min 0,000 mm 0,0 UV-I 0 W/m -3,8 C -2,2 C 0,0 km/h (0 Bft)
17.03.2016 05:40 -2,2 C 89 % 1028,6 hPa 0,0 l/m 0,0 km/h (0 Bft) N 360 0 min 0,000 mm 0,0 UV-I 0 W/m -3,8 C -2,2 C 0,0 km/h (0 Bft)
17.03.2016 05:45 -2,2 C 90 % 1028,7 hPa 0,0 l/m 0,0 km/h (0 Bft) N 360 0 min 0,000 mm 0,0 UV-I 0 W/m -3,6 C -2,2 C 0,0 km/h (0 Bft)
17.03.2016 05:50 -2,2 C 90 % 1028,7 hPa 0,0 l/m 0,0 km/h (0 Bft) N 360 0 min 0,000 mm 0,0 UV-I 0 W/m -3,6 C -2,2 C 0,0 km/h (0 Bft)
17.03.2016 05:55 -2,3 C 90 % 1028,7 hPa 0,0 l/m 0,0 km/h (0 Bft) N 360 0 min 0,000 mm 0,0 UV-I 0 W/m -3,7 C -2,3 C 0,0 km/h (0 Bft)
17.03.2016 06:00 -2,3 C 90 % 1028,8 hPa 0,0 l/m 0,0 km/h (0 Bft) N 360 0 min 0,000 mm 0,0 UV-I 0 W/m -3,7 C -2,3 C 0,0 km/h (0 Bft)
17.03.2016 06:05 -2,3 C 91 % 1028,8 hPa 0,0 l/m 0,0 km/h (0 Bft) N 360 0 min 0,000 mm 0,0 UV-I 0 W/m -3,6 C -2,3 C 0,0 km/h (0 Bft)
17.03.2016 06:10 -2,4 C 90 % 1028,8 hPa 0,0 l/m 0,0 km/h (0 Bft) N 360 0 min 0,000 mm 0,0 UV-I 0 W/m -3,8 C -2,4 C 0,0 km/h (0 Bft)
17.03.2016 06:15 -2,6 C 89 % 1028,8 hPa 0,0 l/m 0,0 km/h (0 Bft) N 360 0 min 0,000 mm 0,0 UV-I 0 W/m -4,2 C -2,6 C 0,0 km/h (0 Bft)
17.03.2016 06:20 -2,7 C 89 % 1028,9 hPa 0,0 l/m 0,0 km/h (0 Bft) N 360 0 min 0,000 mm 0,0 UV-I 0 W/m -4,3 C -2,7 C 0,0 km/h (0 Bft)
17.03.2016 06:25 -2,8 C 90 % 1028,9 hPa 0,0 l/m 0,0 km/h (0 Bft) N 360 0 min 0,000 mm 0,0 UV-I 0 W/m -4,2 C -2,8 C 0,0 km/h (0 Bft)
17.03.2016 06:30 -2,8 C 90 % 1028,9 hPa 0,0 l/m 0,0 km/h (0 Bft) N 360 0 min 0,000 mm 0,0 UV-I 0 W/m -4,2 C -2,8 C 0,0 km/h (0 Bft)
17.03.2016 06:35 -2,9 C 90 % 1028,9 hPa 0,0 l/m 0,0 km/h (0 Bft) N 360 0 min 0,000 mm 0,0 UV-I 0 W/m -4,3 C -2,9 C 0,0 km/h (0 Bft)
17.03.2016 06:40 -3,0 C 90 % 1029,0 hPa 0,0 l/m 0,0 km/h (0 Bft) N 360 0 min 0,000 mm 0,0 UV-I 5 W/m -4,4 C -3,0 C 0,0 km/h (0 Bft)
17.03.2016 06:45 -3,0 C 91 % 1029,0 hPa 0,0 l/m 0,0 km/h (0 Bft) N 360 0 min 0,000 mm 0,0 UV-I 7 W/m -4,3 C -3,0 C 0,0 km/h (0 Bft)
17.03.2016 06:50 -3,0 C 91 % 1029,0 hPa 0,0 l/m 0,0 km/h (0 Bft) N 360 0 min 0,000 mm 0,0 UV-I 10 W/m -4,3 C -3,0 C 0,0 km/h (0 Bft)
17.03.2016 06:55 -2,9 C 91 % 1029,0 hPa 0,0 l/m 0,0 km/h (0 Bft) N 360 0 min 0,000 mm 0,0 UV-I 13 W/m -4,2 C -2,9 C 0,0 km/h (0 Bft)
17.03.2016 07:00 -2,9 C 92 % 1029,1 hPa 0,0 l/m 0,0 km/h (0 Bft) N 360 0 min 0,000 mm 0,0 UV-I 19 W/m -4,0 C -2,9 C 0,0 km/h (0 Bft)
17.03.2016 07:05 -2,8 C 92 % 1029,1 hPa 0,0 l/m 0,0 km/h (0 Bft) N 360 0 min 0,000 mm 0,0 UV-I 26 W/m -3,9 C -2,8 C 0,0 km/h (0 Bft)
17.03.2016 07:10 -2,7 C 92 % 1029,1 hPa 0,0 l/m 0,0 km/h (0 Bft) N 360 0 min 0,000 mm 0,0 UV-I 34 W/m -3,8 C -2,7 C 0,0 km/h (0 Bft)
17.03.2016 07:15 -2,4 C 92 % 1029,1 hPa 0,0 l/m 0,0 km/h (0 Bft) N 360 0 min 0,000 mm 0,0 UV-I 41 W/m -3,5 C -2,4 C 0,0 km/h (0 Bft)
17.03.2016 07:20 -2,1 C 93 % 1029,1 hPa 0,0 l/m 0,0 km/h (0 Bft) N 360 0 min 0,000 mm 0,0 UV-I 52 W/m -3,1 C -2,1 C 0,0 km/h (0 Bft)
17.03.2016 07:25 -1,7 C 92 % 1029,0 hPa 0,0 l/m 0,0 km/h (0 Bft) N 360 0 min 0,000 mm 0,0 UV-I 64 W/m -2,8 C -1,7 C 0,0 km/h (0 Bft)
17.03.2016 07:30 -1,2 C 92 % 1029,0 hPa 0,0 l/m 0,0 km/h (0 Bft) N 360 5 min 0,000 mm 0,0 UV-I 77 W/m -2,3 C -1,2 C 0,0 km/h (0 Bft)
17.03.2016 07:35 -0,7 C 91 % 1029,1 hPa 0,0 l/m 0,0 km/h (0 Bft) N 360 5 min 0,000 mm 0,0 UV-I 91 W/m -2,0 C -0,7 C 0,0 km/h (0 Bft)
17.03.2016 07:40 -0,3 C 91 % 1029,1 hPa 0,0 l/m 0,0 km/h (0 Bft) N 360 5 min 0,000 mm 0,0 UV-I 104 W/m -1,6 C -0,3 C 0,0 km/h (0 Bft)
17.03.2016 07:45 0,2 C 90 % 1029,1 hPa 0,0 l/m 0,0 km/h (0 Bft) N 360 5 min 0,000 mm 0,0 UV-I 119 W/m -1,2 C 0,2 C 0,0 km/h (0 Bft)
17.03.2016 07:50 0,6 C 89 % 1029,1 hPa 0,0 l/m 0,0 km/h (0 Bft) N 360 5 min 0,000 mm 0,0 UV-I 132 W/m -1,0 C 0,6 C 0,0 km/h (0 Bft)
17.03.2016 07:55 0,9 C 87 % 1029,1 hPa 0,0 l/m 0,0 km/h (0 Bft) N 360 5 min 0,000 mm 0,0 UV-I 144 W/m -1,0 C 0,9 C 0,0 km/h (0 Bft)
17.03.2016 08:00 1,2 C 86 % 1029,1 hPa 0,0 l/m 0,0 km/h (0 Bft) N 360 5 min 0,000 mm 0,0 UV-I 155 W/m -0,9 C 1,2 C 0,0 km/h (0 Bft)
17.03.2016 08:05 1,4 C 84 % 1029,1 hPa 0,0 l/m 0,0 km/h (0 Bft) N 360 5 min 0,025 mm 0,0 UV-I 158 W/m -1,0 C 1,4 C 0,0 km/h (0 Bft)
17.03.2016 08:10 1,3 C 82 % 1029,2 hPa 0,0 l/m 0,0 km/h (0 Bft) O-NO 69 5 min 0,000 mm 0,3 UV-I 160 W/m -1,4 C 1,3 C 0,0 km/h (0 Bft)
17.03.2016 08:15 1,4 C 83 % 1029,2 hPa 0,0 l/m 0,0 km/h (0 Bft) O-NO 69 5 min 0,000 mm 0,5 UV-I 165 W/m -1,2 C 1,4 C 0,0 km/h (0 Bft)
17.03.2016 08:20 1,7 C 81 % 1029,1 hPa 0,0 l/m 0,0 km/h (0 Bft) O-NO 69 5 min 0,000 mm 0,5 UV-I 174 W/m -1,2 C 1,7 C 0,0 km/h (0 Bft)
17.03.2016 08:25 1,9 C 81 % 1029,1 hPa 0,0 l/m 0,0 km/h (0 Bft) O-SO 116 5 min 0,000 mm 0,5 UV-I 185 W/m -1,0 C 1,9 C 0,0 km/h (0 Bft)
17.03.2016 08:30 2,7 C 81 % 1029,2 hPa 0,0 l/m 0,1 km/h (0 Bft) O-NO 59 5 min 0,000 mm 0,6 UV-I 196 W/m -0,2 C 2,7 C 3,2 km/h (1 Bft)
17.03.2016 08:35 3,2 C 78 % 1029,1 hPa 0,0 l/m 0,5 km/h (0 Bft) NO 49 5 min 0,000 mm 0,6 UV-I 208 W/m -0,3 C 3,2 C 6,4 km/h (2 Bft)
17.03.2016 08:40 3,5 C 77 % 1029,1 hPa 0,0 l/m 0,0 km/h (0 Bft) O-SO 117 5 min 0,000 mm 0,7 UV-I 221 W/m -0,1 C 3,5 C 1,6 km/h (1 Bft)
17.03.2016 08:45 4,2 C 74 % 1029,1 hPa 0,0 l/m 3,2 km/h (1 Bft) NO 43 5 min 0,000 mm 0,7 UV-I 233 W/m -0,0 C 4,2 C 14,5 km/h (3 Bft)
17.03.2016 08:50 4,7 C 72 % 1029,1 hPa 0,0 l/m 6,6 km/h (2 Bft) O-NO 65 5 min 0,000 mm 0,7 UV-I 248 W/m 0,1 C 4,5 C 12,9 km/h (3 Bft)
17.03.2016 08:55 5,0 C 71 % 1029,1 hPa 0,0 l/m 4,1 km/h (1 Bft) NO 38 5 min 0,000 mm 0,8 UV-I 261 W/m 0,2 C 5,0 C 14,5 km/h (3 Bft)
17.03.2016 09:00 5,3 C 70 % 1029,1 hPa 0,0 l/m 5,6 km/h (1 Bft) O-NO 72 5 min 0,000 mm 0,8 UV-I 276 W/m 0,3 C 5,3 C 14,5 km/h (3 Bft)
17.03.2016 09:05 5,3 C 70 % 1029,1 hPa 0,0 l/m 4,3 km/h (1 Bft) O-NO 67 5 min 0,077 mm 0,9 UV-I 288 W/m 0,3 C 5,3 C 12,9 km/h (3 Bft)
17.03.2016 09:10 5,4 C 69 % 1029,0 hPa 0,0 l/m 3,1 km/h (1 Bft) O-NO 66 5 min 0,000 mm 0,9 UV-I 317 W/m 0,2 C 5,4 C 17,7 km/h (3 Bft)
17.03.2016 09:15 6,2 C 66 % 1029,0 hPa 0,0 l/m 4,9 km/h (1 Bft) O-NO 59 5 min 0,000 mm 1,0 UV-I 327 W/m 0,3 C 6,2 C 12,9 km/h (3 Bft)
17.03.2016 09:20 6,1 C 66 % 1028,9 hPa 0,0 l/m 3,9 km/h (1 Bft) N-NW 331 5 min 0,000 mm 1,0 UV-I 344 W/m 0,2 C 6,1 C 12,9 km/h (3 Bft)
17.03.2016 09:25 5,9 C 68 % 1028,9 hPa 0,0 l/m 1,3 km/h (1 Bft) NO 52 5 min 0,000 mm 1,1 UV-I 364 W/m 0,5 C 5,9 C 12,9 km/h (3 Bft)
17.03.2016 09:30 5,9 C 67 % 1028,9 hPa 0,0 l/m 3,6 km/h (1 Bft) O 86 5 min 0,000 mm 1,1 UV-I 377 W/m 0,3 C 5,9 C 14,5 km/h (3 Bft)
17.03.2016 09:35 6,7 C 66 % 1028,9 hPa 0,0 l/m 1,4 km/h (1 Bft) O-SO 107 5 min 0,000 mm 1,2 UV-I 388 W/m 0,8 C 6,7 C 12,9 km/h (3 Bft)
17.03.2016 09:40 6,7 C 63 % 1028,9 hPa 0,0 l/m 5,1 km/h (1 Bft) O 81 5 min 0,000 mm 1,2 UV-I 403 W/m 0,2 C 6,7 C 12,9 km/h (3 Bft)
17.03.2016 09:45 6,2 C 65 % 1028,8 hPa 0,0 l/m 6,0 km/h (2 Bft) O 90 5 min 0,000 mm 1,3 UV-I 413 W/m 0,1 C 6,2 C 14,5 km/h (3 Bft)
17.03.2016 09:50 6,6 C 63 % 1028,8 hPa 0,0 l/m 7,6 km/h (2 Bft) O-SO 113 5 min 0,000 mm 1,3 UV-I 424 W/m 0,1 C 5,6 C 12,9 km/h (3 Bft)
17.03.2016 09:55 6,3 C 63 % 1028,8 hPa 0,0 l/m 8,7 km/h (2 Bft) NO 53 5 min 0,000 mm 1,4 UV-I 437 W/m -0,2 C 4,4 C 16,1 km/h (3 Bft)
17.03.2016 10:00 6,3 C 63 % 1028,8 hPa 0,0 l/m 6,2 km/h (2 Bft) O 88 5 min 0,000 mm 1,4 UV-I 446 W/m -0,2 C 6,3 C 16,1 km/h (3 Bft)
17.03.2016 10:05 6,2 C 65 % 1028,8 hPa 0,0 l/m 7,6 km/h (2 Bft) O 98 5 min 0,177 mm 1,5 UV-I 456 W/m 0,1 C 5,2 C 12,9 km/h (3 Bft)
17.03.2016 10:10 6,3 C 65 % 1028,8 hPa 0,0 l/m 6,2 km/h (2 Bft) O 98 5 min 0,000 mm 1,5 UV-I 468 W/m 0,2 C 6,3 C 14,5 km/h (3 Bft)
17.03.2016 10:15 6,3 C 65 % 1028,8 hPa 0,0 l/m 9,7 km/h (2 Bft) O 79 5 min 0,000 mm 1,6 UV-I 477 W/m 0,2 C 3,7 C 16,1 km/h (3 Bft)
17.03.2016 10:20 7,0 C 63 % 1028,8 hPa 0,0 l/m 4,9 km/h (1 Bft) O 99 5 min 0,000 mm 1,6 UV-I 482 W/m 0,4 C 7,0 C 12,9 km/h (3 Bft)
17.03.2016 10:25 6,9 C 62 % 1028,8 hPa 0,0 l/m 7,5 km/h (2 Bft) O 101 5 min 0,000 mm 1,7 UV-I 490 W/m 0,1 C 6,0 C 16,1 km/h (3 Bft)
17.03.2016 10:30 6,9 C 62 % 1028,7 hPa 0,0 l/m 7,1 km/h (2 Bft) NO 46 5 min 0,000 mm 1,7 UV-I 501 W/m 0,1 C 6,3 C 16,1 km/h (3 Bft)
17.03.2016 10:35 7,9 C 61 % 1028,7 hPa 0,0 l/m 6,5 km/h (2 Bft) S 170 5 min 0,000 mm 1,8 UV-I 510 W/m 0,9 C 7,8 C 12,9 km/h (3 Bft)
17.03.2016 10:40 7,0 C 61 % 1028,6 hPa 0,0 l/m 8,3 km/h (2 Bft) NO 46 5 min 0,000 mm 1,9 UV-I 523 W/m 0,0 C 5,5 C 17,7 km/h (3 Bft)
17.03.2016 10:45 7,1 C 60 % 1028,6 hPa 0,0 l/m 6,0 km/h (2 Bft) O-SO 105 5 min 0,000 mm 1,9 UV-I 528 W/m -0,1 C 7,1 C 14,5 km/h (3 Bft)
17.03.2016 10:50 6,7 C 61 % 1028,6 hPa 0,0 l/m 7,3 km/h (2 Bft) O 92 5 min 0,000 mm 2,0 UV-I 535 W/m -0,3 C 6,0 C 14,5 km/h (3 Bft)
17.03.2016 10:55 6,9 C 63 % 1028,5 hPa 0,0 l/m 3,0 km/h (1 Bft) NO 51 5 min 0,000 mm 2,0 UV-I 545 W/m 0,4 C 6,9 C 11,3 km/h (2 Bft)
17.03.2016 11:00 7,4 C 62 % 1028,5 hPa 0,0 l/m 4,6 km/h (1 Bft) O 95 5 min 0,000 mm 2,1 UV-I 553 W/m 0,6 C 7,4 C 12,9 km/h (3 Bft)
17.03.2016 11:05 7,6 C 61 % 1028,5 hPa 0,0 l/m 5,9 km/h (2 Bft) O-NO 63 5 min 0,229 mm 2,1 UV-I 563 W/m 0,6 C 7,6 C 12,9 km/h (3 Bft)
17.03.2016 11:10 8,1 C 58 % 1028,5 hPa 0,0 l/m 6,5 km/h (2 Bft) SO 138 5 min 0,000 mm 2,2 UV-I 562 W/m 0,3 C 8,0 C 14,5 km/h (3 Bft)
17.03.2016 11:15 7,3 C 60 % 1028,4 hPa 0,0 l/m 3,8 km/h (1 Bft) SO 138 5 min 0,000 mm 2,2 UV-I 569 W/m 0,1 C 7,3 C 14,5 km/h (3 Bft)
17.03.2016 11:20 7,4 C 62 % 1028,3 hPa 0,0 l/m 3,8 km/h (1 Bft) O 89 5 min 0,000 mm 2,2 UV-I 578 W/m 0,6 C 7,4 C 12,9 km/h (3 Bft)
17.03.2016 11:25 8,0 C 59 % 1028,4 hPa 0,0 l/m 2,5 km/h (1 Bft) O 93 5 min 0,000 mm 2,2 UV-I 582 W/m 0,5 C 8,0 C 12,9 km/h (3 Bft)
17.03.2016 11:30 7,8 C 60 % 1028,3 hPa 0,0 l/m 3,9 km/h (1 Bft) SO 140 5 min 0,000 mm 2,3 UV-I 591 W/m 0,5 C 7,8 C 12,9 km/h (3 Bft)
17.03.2016 11:35 8,1 C 59 % 1028,3 hPa 0,0 l/m 5,7 km/h (1 Bft) O 96 5 min 0,000 mm 2,3 UV-I 594 W/m 0,6 C 8,1 C 12,9 km/h (3 Bft)
17.03.2016 11:40 7,7 C 58 % 1028,3 hPa 0,0 l/m 3,8 km/h (1 Bft) SO 128 5 min 0,000 mm 2,4 UV-I 598 W/m -0,0 C 7,7 C 11,3 km/h (2 Bft)
17.03.2016 11:45 7,8 C 59 % 1028,2 hPa 0,0 l/m 6,3 km/h (2 Bft) O-NO 57 5 min 0,000 mm 2,4 UV-I 602 W/m 0,3 C 7,8 C 14,5 km/h (3 Bft)
17.03.2016 11:50 9,0 C 55 % 1028,1 hPa 0,0 l/m 4,7 km/h (1 Bft) O 98 5 min 0,000 mm 2,4 UV-I 610 W/m 0,5 C 9,0 C 14,5 km/h (3 Bft)
17.03.2016 11:55 9,9 C 51 % 1028,1 hPa 0,0 l/m 5,8 km/h (2 Bft) O-NO 61 5 min 0,000 mm 2,5 UV-I 614 W/m 0,2 C 9,9 C 17,7 km/h (3 Bft)
17.03.2016 12:00 10,6 C 51 % 1028,1 hPa 0,0 l/m 1,4 km/h (1 Bft) O 95 5 min 0,000 mm 2,5 UV-I 619 W/m 0,9 C 10,6 C 12,9 km/h (3 Bft)
17.03.2016 12:05 9,7 C 51 % 1028,0 hPa 0,0 l/m 6,5 km/h (2 Bft) N-NW 328 5 min 0,279 mm 2,5 UV-I 623 W/m 0,1 C 9,7 C 12,9 km/h (3 Bft)
17.03.2016 12:10 9,9 C 55 % 1027,9 hPa 0,0 l/m 0,2 km/h (0 Bft) N-NW 348 5 min 0,000 mm 2,5 UV-I 623 W/m 1,3 C 9,9 C 3,2 km/h (1 Bft)
17.03.2016 12:15 10,4 C 49 % 1027,9 hPa 0,0 l/m 3,1 km/h (1 Bft) NO 50 5 min 0,000 mm 2,5 UV-I 626 W/m 0,2 C 10,4 C 12,9 km/h (3 Bft)
17.03.2016 12:20 9,9 C 51 % 1027,8 hPa 0,0 l/m 5,4 km/h (1 Bft) NO 55 5 min 0,000 mm 2,5 UV-I 629 W/m 0,2 C 9,9 C 17,7 km/h (3 Bft)
17.03.2016 12:25 9,8 C 51 % 1027,7 hPa 0,0 l/m 2,2 km/h (1 Bft) O 98 5 min 0,000 mm 2,6 UV-I 631 W/m 0,2 C 9,8 C 9,7 km/h (2 Bft)
17.03.2016 12:30 9,9 C 52 % 1027,6 hPa 0,0 l/m 6,8 km/h (2 Bft) O-NO 63 5 min 0,000 mm 2,6 UV-I 630 W/m 0,5 C 9,6 C 16,1 km/h (3 Bft)
17.03.2016 12:35 9,6 C 52 % 1027,6 hPa 0,0 l/m 3,2 km/h (1 Bft) O 84 5 min 0,000 mm 2,6 UV-I 633 W/m 0,2 C 9,6 C 11,3 km/h (2 Bft)
17.03.2016 12:40 11,3 C 51 % 1027,6 hPa 0,0 l/m 0,2 km/h (0 Bft) N-NW 335 5 min 0,000 mm 2,6 UV-I 634 W/m 1,5 C 11,3 C 4,8 km/h (1 Bft)
17.03.2016 12:45 11,9 C 47 % 1027,6 hPa 0,0 l/m 2,9 km/h (1 Bft) SO 129 5 min 0,000 mm 2,6 UV-I 634 W/m 1,0 C 11,9 C 9,7 km/h (2 Bft)
17.03.2016 12:50 11,5 C 48 % 1027,6 hPa 0,0 l/m 0,2 km/h (0 Bft) O-SO 105 5 min 0,000 mm 2,5 UV-I 633 W/m 0,9 C 11,5 C 3,2 km/h (1 Bft)
17.03.2016 12:55 11,2 C 51 % 1027,4 hPa 0,0 l/m 2,3 km/h (1 Bft) NO 49 5 min 0,000 mm 2,5 UV-I 634 W/m 1,4 C 11,2 C 12,9 km/h (3 Bft)
17.03.2016 13:00 11,1 C 50 % 1027,3 hPa 0,0 l/m 3,1 km/h (1 Bft) O-NO 61 5 min 0,000 mm 2,5 UV-I 631 W/m 1,1 C 11,1 C 12,9 km/h (3 Bft)
17.03.2016 13:05 12,2 C 48 % 1027,3 hPa 0,0 l/m 2,0 km/h (1 Bft) O 80 5 min 0,305 mm 2,5 UV-I 630 W/m 1,5 C 12,2 C 12,9 km/h (3 Bft)
17.03.2016 13:10 11,3 C 48 % 1027,2 hPa 0,0 l/m 1,1 km/h (1 Bft) O-SO 107 5 min 0,000 mm 2,5 UV-I 631 W/m 0,7 C 11,3 C 9,7 km/h (2 Bft)
17.03.2016 13:15 12,2 C 46 % 1027,2 hPa 0,0 l/m 0,6 km/h (0 Bft) O-NO 60 5 min 0,000 mm 2,5 UV-I 630 W/m 0,9 C 12,2 C 9,7 km/h (2 Bft)
17.03.2016 13:20 12,5 C 47 % 1027,0 hPa 0,0 l/m 0,5 km/h (0 Bft) W-NW 293 5 min 0,000 mm 2,4 UV-I 626 W/m 1,5 C 12,5 C 8,0 km/h (2 Bft)
17.03.2016 13:25 11,5 C 45 % 1026,9 hPa 0,0 l/m 3,2 km/h (1 Bft) O 88 5 min 0,000 mm 2,4 UV-I 623 W/m -0,0 C 11,5 C 16,1 km/h (3 Bft)
17.03.2016 13:30 11,4 C 48 % 1026,8 hPa 0,0 l/m 3,5 km/h (1 Bft) O-NO 57 5 min 0,000 mm 2,4 UV-I 623 W/m 0,8 C 11,4 C 14,5 km/h (3 Bft)
17.03.2016 13:35 12,7 C 45 % 1026,9 hPa 0,0 l/m 4,0 km/h (1 Bft) O-NO 63 5 min 0,000 mm 2,4 UV-I 621 W/m 1,1 C 12,7 C 12,9 km/h (3 Bft)
17.03.2016 13:40 13,4 C 44 % 1026,8 hPa 0,0 l/m 2,2 km/h (1 Bft) NO 52 5 min 0,000 mm 2,3 UV-I 617 W/m 1,4 C 13,4 C 12,9 km/h (3 Bft)
17.03.2016 13:45 12,8 C 43 % 1026,6 hPa 0,0 l/m 2,7 km/h (1 Bft) S-SO 152 5 min 0,000 mm 2,3 UV-I 609 W/m 0,5 C 12,8 C 11,3 km/h (2 Bft)
17.03.2016 13:50 12,1 C 43 % 1026,4 hPa 0,0 l/m 7,0 km/h (2 Bft) O-SO 109 5 min 0,000 mm 2,3 UV-I 607 W/m -0,1 C 11,7 C 16,1 km/h (3 Bft)
17.03.2016 13:55 10,6 C 48 % 1026,4 hPa 0,0 l/m 8,2 km/h (2 Bft) NO 49 5 min 0,000 mm 2,2 UV-I 603 W/m 0,1 C 9,4 C 16,1 km/h (3 Bft)
17.03.2016 14:00 11,0 C 47 % 1026,4 hPa 0,0 l/m 6,9 km/h (2 Bft) N-NW 336 5 min 0,000 mm 2,2 UV-I 596 W/m 0,1 C 10,7 C 12,9 km/h (3 Bft)
17.03.2016 14:05 11,1 C 47 % 1026,4 hPa 0,0 l/m 4,2 km/h (1 Bft) O 93 5 min 0,330 mm 2,1 UV-I 589 W/m 0,2 C 11,1 C 12,9 km/h (3 Bft)
17.03.2016 14:10 11,3 C 47 % 1026,3 hPa 0,0 l/m 2,1 km/h (1 Bft) O-SO 110 5 min 0,000 mm 2,1 UV-I 586 W/m 0,4 C 11,3 C 11,3 km/h (2 Bft)
17.03.2016 14:15 11,8 C 47 % 1026,1 hPa 0,0 l/m 4,4 km/h (1 Bft) O 96 5 min 0,000 mm 2,0 UV-I 578 W/m 0,9 C 11,8 C 11,3 km/h (2 Bft)
17.03.2016 14:20 12,4 C 43 % 1026,1 hPa 0,0 l/m 4,2 km/h (1 Bft) O-NO 69 5 min 0,000 mm 2,0 UV-I 573 W/m 0,2 C 12,4 C 14,5 km/h (3 Bft)
17.03.2016 14:25 11,4 C 46 % 1026,0 hPa 0,0 l/m 2,6 km/h (1 Bft) N 5 5 min 0,000 mm 1,9 UV-I 564 W/m 0,2 C 11,4 C 11,3 km/h (2 Bft)
17.03.2016 14:30 12,8 C 43 % 1026,1 hPa 0,0 l/m 4,2 km/h (1 Bft) NO 42 5 min 0,000 mm 1,9 UV-I 558 W/m 0,5 C 12,8 C 14,5 km/h (3 Bft)
17.03.2016 14:35 13,1 C 43 % 1026,0 hPa 0,0 l/m 2,7 km/h (1 Bft) O-NO 77 5 min 0,000 mm 1,8 UV-I 550 W/m 0,8 C 13,1 C 14,5 km/h (3 Bft)
17.03.2016 14:40 11,8 C 43 % 1025,9 hPa 0,0 l/m 5,8 km/h (2 Bft) O 100 5 min 0,000 mm 1,8 UV-I 546 W/m -0,4 C 11,8 C 14,5 km/h (3 Bft)
17.03.2016 14:45 11,7 C 45 % 1025,9 hPa 0,0 l/m 4,4 km/h (1 Bft) O-SO 102 5 min 0,000 mm 1,7 UV-I 537 W/m 0,2 C 11,7 C 14,5 km/h (3 Bft)
17.03.2016 14:50 12,2 C 45 % 1025,9 hPa 0,0 l/m 1,3 km/h (1 Bft) O 81 5 min 0,000 mm 1,7 UV-I 531 W/m 0,6 C 12,2 C 12,9 km/h (3 Bft)
17.03.2016 14:55 12,9 C 43 % 1025,8 hPa 0,0 l/m 0,2 km/h (0 Bft) O 82 5 min 0,000 mm 1,6 UV-I 521 W/m 0,6 C 12,9 C 1,6 km/h (1 Bft)
17.03.2016 15:00 13,0 C 42 % 1025,7 hPa 0,0 l/m 3,6 km/h (1 Bft) O-NO 73 5 min 0,000 mm 1,6 UV-I 512 W/m 0,4 C 13,0 C 11,3 km/h (2 Bft)
17.03.2016 15:05 12,2 C 44 % 1025,7 hPa 0,0 l/m 4,4 km/h (1 Bft) O 101 5 min 0,305 mm 1,5 UV-I 505 W/m 0,3 C 12,2 C 14,5 km/h (3 Bft)
17.03.2016 15:10 11,5 C 45 % 1025,6 hPa 0,0 l/m 5,8 km/h (2 Bft) O-SO 116 5 min 0,000 mm 1,4 UV-I 493 W/m -0,0 C 11,5 C 12,9 km/h (3 Bft)
17.03.2016 15:15 11,7 C 45 % 1025,5 hPa 0,0 l/m 5,3 km/h (1 Bft) O-SO 117 5 min 0,000 mm 1,4 UV-I 483 W/m 0,2 C 11,7 C 14,5 km/h (3 Bft)
17.03.2016 15:20 11,9 C 45 % 1025,5 hPa 0,0 l/m 4,0 km/h (1 Bft) O-SO 119 5 min 0,000 mm 1,3 UV-I 474 W/m 0,4 C 11,9 C 12,9 km/h (3 Bft)
17.03.2016 15:25 11,8 C 45 % 1025,5 hPa 0,0 l/m 4,0 km/h (1 Bft) NO 55 5 min 0,000 mm 1,3 UV-I 465 W/m 0,3 C 11,8 C 12,9 km/h (3 Bft)
17.03.2016 15:30 11,7 C 45 % 1025,4 hPa 0,0 l/m 2,2 km/h (1 Bft) O-SO 119 5 min 0,000 mm 1,2 UV-I 450 W/m 0,2 C 11,7 C 11,3 km/h (2 Bft)
17.03.2016 15:35 12,3 C 43 % 1025,4 hPa 0,0 l/m 4,4 km/h (1 Bft) O-NO 59 5 min 0,000 mm 1,2 UV-I 443 W/m 0,1 C 12,3 C 11,3 km/h (2 Bft)
17.03.2016 15:40 12,7 C 42 % 1025,4 hPa 0,0 l/m 7,0 km/h (2 Bft) NO 50 5 min 0,000 mm 1,1 UV-I 433 W/m 0,1 C 12,3 C 14,5 km/h (3 Bft)
17.03.2016 15:45 12,8 C 42 % 1025,3 hPa 0,0 l/m 2,4 km/h (1 Bft) O-NO 76 5 min 0,000 mm 1,1 UV-I 419 W/m 0,2 C 12,8 C 12,9 km/h (3 Bft)
17.03.2016 15:50 11,8 C 44 % 1025,2 hPa 0,0 l/m 4,8 km/h (1 Bft) O 83 5 min 0,000 mm 1,0 UV-I 408 W/m -0,0 C 11,8 C 14,5 km/h (3 Bft)
17.03.2016 15:55 11,9 C 45 % 1025,2 hPa 0,0 l/m 2,0 km/h (1 Bft) O-SO 105 5 min 0,000 mm 1,0 UV-I 397 W/m 0,4 C 11,9 C 9,7 km/h (2 Bft)
17.03.2016 16:00 12,2 C 44 % 1025,2 hPa 0,0 l/m 2,1 km/h (1 Bft) NO 50 5 min 0,000 mm 0,9 UV-I 384 W/m 0,3 C 12,2 C 9,7 km/h (2 Bft)
17.03.2016 16:05 12,1 C 45 % 1025,2 hPa 0,0 l/m 5,8 km/h (2 Bft) O-NO 61 5 min 0,254 mm 0,9 UV-I 373 W/m 0,5 C 12,1 C 14,5 km/h (3 Bft)
17.03.2016 16:10 11,7 C 45 % 1025,1 hPa 0,0 l/m 7,2 km/h (2 Bft) O 96 5 min 0,000 mm 0,8 UV-I 363 W/m 0,2 C 11,2 C 14,5 km/h (3 Bft)
17.03.2016 16:15 11,4 C 46 % 1025,0 hPa 0,0 l/m 5,3 km/h (1 Bft) SO 132 5 min 0,000 mm 0,8 UV-I 346 W/m 0,2 C 11,4 C 16,1 km/h (3 Bft)
17.03.2016 16:20 12,1 C 46 % 1025,0 hPa 0,0 l/m 0,3 km/h (0 Bft) SO 130 5 min 0,000 mm 0,8 UV-I 332 W/m 0,8 C 12,1 C 1,6 km/h (1 Bft)
17.03.2016 16:25 12,5 C 46 % 1025,0 hPa 0,0 l/m 2,9 km/h (1 Bft) N-NW 339 5 min 0,000 mm 0,7 UV-I 318 W/m 1,2 C 12,5 C 11,3 km/h (2 Bft)
17.03.2016 16:30 13,3 C 43 % 1024,9 hPa 0,0 l/m 0,0 km/h (0 Bft) NO 37 5 min 0,000 mm 0,7 UV-I 309 W/m 1,0 C 13,3 C 0,0 km/h (0 Bft)
17.03.2016 16:35 13,5 C 42 % 1024,9 hPa 0,0 l/m 0,0 km/h (0 Bft) NO 51 5 min 0,000 mm 0,6 UV-I 295 W/m 0,8 C 13,5 C 0,0 km/h (0 Bft)
17.03.2016 16:40 13,9 C 42 % 1024,8 hPa 0,0 l/m 0,3 km/h (0 Bft) NO 34 5 min 0,000 mm 0,6 UV-I 279 W/m 1,2 C 13,9 C 8,0 km/h (2 Bft)
17.03.2016 16:45 13,9 C 42 % 1024,9 hPa 0,0 l/m 0,2 km/h (0 Bft) NW 320 5 min 0,000 mm 0,5 UV-I 263 W/m 1,2 C 13,9 C 4,8 km/h (1 Bft)
17.03.2016 16:50 14,1 C 42 % 1024,8 hPa 0,0 l/m 0,1 km/h (0 Bft) N-NO 22 5 min 0,000 mm 0,5 UV-I 244 W/m 1,4 C 14,1 C 1,6 km/h (1 Bft)
17.03.2016 16:55 14,1 C 41 % 1024,8 hPa 0,0 l/m 1,2 km/h (1 Bft) O-SO 120 5 min 0,000 mm 0,5 UV-I 231 W/m 1,1 C 14,1 C 12,9 km/h (3 Bft)
17.03.2016 17:00 13,7 C 42 % 1024,8 hPa 0,0 l/m 0,8 km/h (0 Bft) O-NO 66 5 min 0,000 mm 0,2 UV-I 220 W/m 1,0 C 13,7 C 8,0 km/h (2 Bft)
17.03.2016 17:05 13,2 C 44 % 1024,7 hPa 0,0 l/m 1,1 km/h (1 Bft) NO 50 5 min 0,178 mm 0,0 UV-I 205 W/m 1,2 C 13,2 C 12,9 km/h (3 Bft)
17.03.2016 17:10 13,2 C 43 % 1024,7 hPa 0,0 l/m 0,1 km/h (0 Bft) NO 40 5 min 0,000 mm 0,0 UV-I 187 W/m 0,9 C 13,2 C 1,6 km/h (1 Bft)
17.03.2016 17:15 12,6 C 43 % 1024,7 hPa 0,0 l/m 1,0 km/h (0 Bft) NO 41 5 min 0,000 mm 0,0 UV-I 172 W/m 0,4 C 12,6 C 8,0 km/h (2 Bft)
17.03.2016 17:20 12,3 C 45 % 1024,7 hPa 0,0 l/m 0,1 km/h (0 Bft) O-NO 62 5 min 0,000 mm 0,0 UV-I 158 W/m 0,7 C 12,3 C 1,6 km/h (1 Bft)
17.03.2016 17:25 12,4 C 46 % 1024,7 hPa 0,0 l/m 0,2 km/h (0 Bft) NO 37 5 min 0,000 mm 0,0 UV-I 144 W/m 1,1 C 12,4 C 3,2 km/h (1 Bft)
17.03.2016 17:30 12,2 C 45 % 1024,7 hPa 0,0 l/m 1,5 km/h (1 Bft) O-NO 58 5 min 0,000 mm 0,0 UV-I 130 W/m 0,6 C 12,2 C 9,7 km/h (2 Bft)
17.03.2016 17:35 11,9 C 46 % 1024,7 hPa 0,0 l/m 3,4 km/h (1 Bft) O-NO 69 5 min 0,000 mm 0,0 UV-I 115 W/m 0,7 C 11,9 C 11,3 km/h (2 Bft)
17.03.2016 17:40 11,9 C 47 % 1024,6 hPa 0,0 l/m 0,1 km/h (0 Bft) N-NO 17 5 min 0,000 mm 0,0 UV-I 99 W/m 1,0 C 11,9 C 3,2 km/h (1 Bft)
17.03.2016 17:45 11,8 C 47 % 1024,6 hPa 0,0 l/m 0,3 km/h (0 Bft) O 101 5 min 0,000 mm 0,0 UV-I 85 W/m 0,9 C 11,8 C 3,2 km/h (1 Bft)
17.03.2016 17:50 11,4 C 49 % 1024,6 hPa 0,0 l/m 0,2 km/h (0 Bft) NO 42 5 min 0,000 mm 0,0 UV-I 71 W/m 1,1 C 11,4 C 1,6 km/h (1 Bft)
17.03.2016 17:55 11,3 C 49 % 1024,6 hPa 0,0 l/m 0,0 km/h (0 Bft) O-NO 61 5 min 0,000 mm 0,0 UV-I 58 W/m 1,0 C 11,3 C 1,6 km/h (1 Bft)
17.03.2016 18:00 11,2 C 49 % 1024,5 hPa 0,0 l/m 0,0 km/h (0 Bft) O-NO 61 5 min 0,000 mm 0,0 UV-I 48 W/m 0,9 C 11,2 C 0,0 km/h (0 Bft)
17.03.2016 18:05 11,1 C 49 % 1024,5 hPa 0,0 l/m 0,0 km/h (0 Bft) O-NO 61 5 min 0,076 mm 0,0 UV-I 39 W/m 0,8 C 11,1 C 1,6 km/h (1 Bft)
17.03.2016 18:10 10,9 C 50 % 1024,6 hPa 0,0 l/m 0,0 km/h (0 Bft) O-NO 69 0 min 0,000 mm 0,0 UV-I 30 W/m 0,9 C 10,9 C 1,6 km/h (1 Bft)
17.03.2016 18:15 10,9 C 51 % 1024,6 hPa 0,0 l/m 0,0 km/h (0 Bft) O-NO 69 0 min 0,000 mm 0,0 UV-I 21 W/m 1,2 C 10,9 C 0,0 km/h (0 Bft)
17.03.2016 18:20 10,8 C 51 % 1024,6 hPa 0,0 l/m 0,0 km/h (0 Bft) O-NO 69 5 min 0,000 mm 0,0 UV-I 16 W/m 1,1 C 10,8 C 0,0 km/h (0 Bft)
17.03.2016 18:25 10,7 C 51 % 1024,6 hPa 0,0 l/m 0,0 km/h (0 Bft) O-NO 69 0 min 0,000 mm 0,0 UV-I 12 W/m 1,0 C 10,7 C 0,0 km/h (0 Bft)
17.03.2016 18:30 10,6 C 51 % 1024,6 hPa 0,0 l/m 0,0 km/h (0 Bft) O-NO 69 0 min 0,000 mm 0,0 UV-I 9 W/m 0,9 C 10,6 C 0,0 km/h (0 Bft)
17.03.2016 18:35 10,4 C 52 % 1024,6 hPa 0,0 l/m 0,0 km/h (0 Bft) O-NO 69 0 min 0,000 mm 0,0 UV-I 6 W/m 1,0 C 10,4 C 0,0 km/h (0 Bft)
17.03.2016 18:40 10,1 C 53 % 1024,6 hPa 0,0 l/m 0,0 km/h (0 Bft) O-NO 69 0 min 0,000 mm 0,0 UV-I 1 W/m 1,0 C 10,1 C 0,0 km/h (0 Bft)
17.03.2016 18:45 9,8 C 52 % 1024,6 hPa 0,0 l/m 0,0 km/h (0 Bft) O-NO 69 0 min 0,000 mm 0,0 UV-I 0 W/m 0,4 C 9,8 C 0,0 km/h (0 Bft)
17.03.2016 18:50 9,6 C 53 % 1024,5 hPa 0,0 l/m 0,0 km/h (0 Bft) O-NO 69 0 min 0,000 mm 0,0 UV-I 0 W/m 0,5 C 9,6 C 0,0 km/h (0 Bft)
17.03.2016 18:55 9,3 C 54 % 1024,5 hPa 0,0 l/m 0,0 km/h (0 Bft) O-NO 69 0 min 0,000 mm 0,0 UV-I 0 W/m 0,5 C 9,3 C 0,0 km/h (0 Bft)
17.03.2016 19:00 9,1 C 54 % 1024,5 hPa 0,0 l/m 0,0 km/h (0 Bft) O-NO 69 0 min 0,000 mm 0,0 UV-I 0 W/m 0,3 C 9,1 C 0,0 km/h (0 Bft)
17.03.2016 19:05 8,8 C 56 % 1024,6 hPa 0,0 l/m 0,0 km/h (0 Bft) O-NO 69 0 min 0,026 mm 0,0 UV-I 0 W/m 0,5 C 8,8 C 0,0 km/h (0 Bft)
17.03.2016 19:10 8,4 C 58 % 1024,6 hPa 0,0 l/m 0,0 km/h (0 Bft) O-NO 69 0 min 0,000 mm 0,0 UV-I 0 W/m 0,6 C 8,4 C 0,0 km/h (0 Bft)
17.03.2016 19:15 8,0 C 59 % 1024,6 hPa 0,0 l/m 0,0 km/h (0 Bft) O-NO 69 0 min 0,000 mm 0,0 UV-I 0 W/m 0,5 C 8,0 C 0,0 km/h (0 Bft)
17.03.2016 19:20 7,7 C 60 % 1024,6 hPa 0,0 l/m 0,0 km/h (0 Bft) O-NO 69 0 min 0,000 mm 0,0 UV-I 0 W/m 0,4 C 7,7 C 0,0 km/h (0 Bft)
17.03.2016 19:25 7,3 C 61 % 1024,6 hPa 0,0 l/m 0,0 km/h (0 Bft) O-NO 69 0 min 0,000 mm 0,0 UV-I 0 W/m 0,3 C 7,3 C 0,0 km/h (0 Bft)
17.03.2016 19:30 7,1 C 62 % 1024,6 hPa 0,0 l/m 0,0 km/h (0 Bft) O-NO 69 0 min 0,000 mm 0,0 UV-I 0 W/m 0,3 C 7,1 C 0,0 km/h (0 Bft)
17.03.2016 19:35 6,9 C 62 % 1024,6 hPa 0,0 l/m 0,0 km/h (0 Bft) O-NO 69 0 min 0,000 mm 0,0 UV-I 0 W/m 0,1 C 6,9 C 0,0 km/h (0 Bft)
17.03.2016 19:40 6,8 C 63 % 1024,6 hPa 0,0 l/m 0,0 km/h (0 Bft) O-NO 69 0 min 0,000 mm 0,0 UV-I 0 W/m 0,3 C 6,8 C 0,0 km/h (0 Bft)
17.03.2016 19:45 6,7 C 64 % 1024,6 hPa 0,0 l/m 0,0 km/h (0 Bft) O-NO 69 0 min 0,000 mm 0,0 UV-I 0 W/m 0,4 C 6,7 C 0,0 km/h (0 Bft)
17.03.2016 19:50 6,6 C 64 % 1024,6 hPa 0,0 l/m 0,0 km/h (0 Bft) O-NO 69 0 min 0,000 mm 0,0 UV-I 0 W/m 0,3 C 6,6 C 0,0 km/h (0 Bft)
17.03.2016 19:55 6,4 C 65 % 1024,6 hPa 0,0 l/m 0,0 km/h (0 Bft) O-NO 69 0 min 0,000 mm 0,0 UV-I 0 W/m 0,3 C 6,4 C 0,0 km/h (0 Bft)
17.03.2016 20:00 6,2 C 66 % 1024,6 hPa 0,0 l/m 0,0 km/h (0 Bft) O-NO 69 0 min 0,000 mm 0,0 UV-I 0 W/m 0,3 C 6,2 C 0,0 km/h (0 Bft)
17.03.2016 20:05 5,9 C 66 % 1024,5 hPa 0,0 l/m 0,0 km/h (0 Bft) O-NO 69 0 min 0,025 mm 0,0 UV-I 0 W/m 0,0 C 5,9 C 0,0 km/h (0 Bft)
17.03.2016 20:10 5,6 C 67 % 1024,4 hPa 0,0 l/m 0,0 km/h (0 Bft) O-NO 69 0 min 0,000 mm 0,0 UV-I 0 W/m -0,0 C 5,6 C 0,0 km/h (0 Bft)
17.03.2016 20:15 5,4 C 68 % 1024,5 hPa 0,0 l/m 0,0 km/h (0 Bft) O-NO 69 0 min 0,000 mm 0,0 UV-I 0 W/m -0,0 C 5,4 C 0,0 km/h (0 Bft)
17.03.2016 20:20 5,3 C 68 % 1024,5 hPa 0,0 l/m 0,0 km/h (0 Bft) O-NO 69 0 min 0,000 mm 0,0 UV-I 0 W/m -0,1 C 5,3 C 0,0 km/h (0 Bft)
17.03.2016 20:25 5,1 C 69 % 1024,5 hPa 0,0 l/m 0,0 km/h (0 Bft) O-NO 69 0 min 0,000 mm 0,0 UV-I 0 W/m -0,1 C 5,1 C 0,0 km/h (0 Bft)
17.03.2016 20:30 4,9 C 70 % 1024,4 hPa 0,0 l/m 0,0 km/h (0 Bft) O-NO 69 0 min 0,000 mm 0,0 UV-I 0 W/m -0,1 C 4,9 C 0,0 km/h (0 Bft)
17.03.2016 20:35 4,8 C 70 % 1024,5 hPa 0,0 l/m 0,0 km/h (0 Bft) O-NO 69 0 min 0,000 mm 0,0 UV-I 0 W/m -0,2 C 4,8 C 0,0 km/h (0 Bft)
17.03.2016 20:40 4,7 C 71 % 1024,5 hPa 0,0 l/m 0,0 km/h (0 Bft) O-NO 69 0 min 0,000 mm 0,0 UV-I 0 W/m -0,1 C 4,7 C 0,0 km/h (0 Bft)
17.03.2016 20:45 4,5 C 71 % 1024,5 hPa 0,0 l/m 0,0 km/h (0 Bft) O-NO 69 0 min 0,000 mm 0,0 UV-I 0 W/m -0,3 C 4,5 C 0,0 km/h (0 Bft)
17.03.2016 20:50 4,3 C 72 % 1024,5 hPa 0,0 l/m 0,0 km/h (0 Bft) O-NO 69 0 min 0,000 mm 0,0 UV-I 0 W/m -0,3 C 4,3 C 0,0 km/h (0 Bft)
17.03.2016 20:55 4,1 C 72 % 1024,5 hPa 0,0 l/m 0,0 km/h (0 Bft) O-NO 69 0 min 0,000 mm 0,0 UV-I 0 W/m -0,5 C 4,1 C 0,0 km/h (0 Bft)
17.03.2016 21:00 3,8 C 73 % 1024,6 hPa 0,0 l/m 0,0 km/h (0 Bft) O-NO 69 0 min 0,000 mm 0,0 UV-I 0 W/m -0,6 C 3,8 C 0,0 km/h (0 Bft)
17.03.2016 21:05 3,6 C 75 % 1024,5 hPa 0,0 l/m 0,0 km/h (0 Bft) O-NO 69 0 min 0,025 mm 0,0 UV-I 0 W/m -0,4 C 3,6 C 0,0 km/h (0 Bft)
17.03.2016 21:10 3,4 C 74 % 1024,5 hPa 0,0 l/m 0,0 km/h (0 Bft) O-NO 69 0 min 0,000 mm 0,0 UV-I 0 W/m -0,8 C 3,4 C 0,0 km/h (0 Bft)
17.03.2016 21:15 3,3 C 75 % 1024,6 hPa 0,0 l/m 0,0 km/h (0 Bft) O-NO 69 0 min 0,000 mm 0,0 UV-I 0 W/m -0,7 C 3,3 C 0,0 km/h (0 Bft)
17.03.2016 21:20 3,2 C 75 % 1024,6 hPa 0,0 l/m 0,0 km/h (0 Bft) O-NO 69 0 min 0,000 mm 0,0 UV-I 0 W/m -0,8 C 3,2 C 0,0 km/h (0 Bft)
17.03.2016 21:25 3,1 C 75 % 1024,5 hPa 0,0 l/m 0,0 km/h (0 Bft) O-NO 69 0 min 0,000 mm 0,0 UV-I 0 W/m -0,9 C 3,1 C 0,0 km/h (0 Bft)
17.03.2016 21:30 3,0 C 76 % 1024,5 hPa 0,0 l/m 0,0 km/h (0 Bft) O-NO 69 0 min 0,000 mm 0,0 UV-I 0 W/m -0,8 C 3,0 C 0,0 km/h (0 Bft)
17.03.2016 21:35 2,9 C 77 % 1024,5 hPa 0,0 l/m 0,0 km/h (0 Bft) O-NO 69 0 min 0,000 mm 0,0 UV-I 0 W/m -0,7 C 2,9 C 0,0 km/h (0 Bft)
17.03.2016 21:40 2,7 C 77 % 1024,5 hPa 0,0 l/m 0,0 km/h (0 Bft) O-NO 69 0 min 0,000 mm 0,0 UV-I 0 W/m -0,9 C 2,7 C 0,0 km/h (0 Bft)
17.03.2016 21:45 2,6 C 77 % 1024,4 hPa 0,0 l/m 0,0 km/h (0 Bft) O-NO 69 0 min 0,000 mm 0,0 UV-I 0 W/m -1,0 C 2,6 C 0,0 km/h (0 Bft)
17.03.2016 21:50 2,4 C 77 % 1024,4 hPa 0,0 l/m 0,0 km/h (0 Bft) O-NO 69 0 min 0,000 mm 0,0 UV-I 0 W/m -1,2 C 2,4 C 0,0 km/h (0 Bft)
17.03.2016 21:55 2,2 C 78 % 1024,4 hPa 0,0 l/m 0,0 km/h (0 Bft) O-NO 69 0 min 0,000 mm 0,0 UV-I 0 W/m -1,2 C 2,2 C 0,0 km/h (0 Bft)
17.03.2016 22:00 2,1 C 79 % 1024,4 hPa 0,0 l/m 0,0 km/h (0 Bft) O-NO 69 0 min 0,000 mm 0,0 UV-I 0 W/m -1,2 C 2,1 C 0,0 km/h (0 Bft)
17.03.2016 22:05 1,9 C 80 % 1024,4 hPa 0,0 l/m 0,0 km/h (0 Bft) O-NO 69 0 min 0,000 mm 0,0 UV-I 0 W/m -1,2 C 1,9 C 0,0 km/h (0 Bft)
17.03.2016 22:10 1,8 C 79 % 1024,5 hPa 0,0 l/m 0,0 km/h (0 Bft) O-NO 69 0 min 0,000 mm 0,0 UV-I 0 W/m -1,4 C 1,8 C 0,0 km/h (0 Bft)
17.03.2016 22:15 1,7 C 80 % 1024,5 hPa 0,0 l/m 0,0 km/h (0 Bft) O-NO 69 0 min 0,000 mm 0,0 UV-I 0 W/m -1,4 C 1,7 C 0,0 km/h (0 Bft)
17.03.2016 22:20 1,7 C 81 % 1024,5 hPa 0,0 l/m 0,0 km/h (0 Bft) O-NO 69 0 min 0,000 mm 0,0 UV-I 0 W/m -1,2 C 1,7 C 0,0 km/h (0 Bft)
17.03.2016 22:25 1,6 C 81 % 1024,4 hPa 0,0 l/m 0,0 km/h (0 Bft) O-NO 69 0 min 0,000 mm 0,0 UV-I 0 W/m -1,3 C 1,6 C 0,0 km/h (0 Bft)
17.03.2016 22:30 1,4 C 82 % 1024,4 hPa 0,0 l/m 0,0 km/h (0 Bft) O-NO 69 0 min 0,000 mm 0,0 UV-I 0 W/m -1,3 C 1,4 C 0,0 km/h (0 Bft)
17.03.2016 22:35 1,4 C 82 % 1024,4 hPa 0,0 l/m 0,0 km/h (0 Bft) O-NO 69 0 min 0,000 mm 0,0 UV-I 0 W/m -1,3 C 1,4 C 0,0 km/h (0 Bft)
17.03.2016 22:40 1,3 C 81 % 1024,4 hPa 0,0 l/m 0,0 km/h (0 Bft) O-NO 69 0 min 0,000 mm 0,0 UV-I 0 W/m -1,6 C 1,3 C 0,0 km/h (0 Bft)
17.03.2016 22:45 1,3 C 82 % 1024,4 hPa 0,0 l/m 0,0 km/h (0 Bft) O-NO 69 0 min 0,000 mm 0,0 UV-I 0 W/m -1,4 C 1,3 C 0,0 km/h (0 Bft)
17.03.2016 22:50 1,2 C 82 % 1024,5 hPa 0,0 l/m 0,0 km/h (0 Bft) O-NO 69 0 min 0,000 mm 0,0 UV-I 0 W/m -1,5 C 1,2 C 0,0 km/h (0 Bft)
17.03.2016 22:55 1,1 C 82 % 1024,4 hPa 0,0 l/m 0,0 km/h (0 Bft) O-NO 69 0 min 0,000 mm 0,0 UV-I 0 W/m -1,6 C 1,1 C 0,0 km/h (0 Bft)
17.03.2016 23:00 0,8 C 82 % 1024,4 hPa 0,0 l/m 0,0 km/h (0 Bft) O-NO 69 0 min 0,000 mm 0,0 UV-I 0 W/m -1,9 C 0,8 C 0,0 km/h (0 Bft)
17.03.2016 23:05 0,7 C 82 % 1024,4 hPa 0,0 l/m 0,0 km/h (0 Bft) O-NO 69 0 min 0,000 mm 0,0 UV-I 0 W/m -2,0 C 0,7 C 0,0 km/h (0 Bft)
17.03.2016 23:10 0,6 C 83 % 1024,4 hPa 0,0 l/m 0,0 km/h (0 Bft) O-NO 69 0 min 0,000 mm 0,0 UV-I 0 W/m -1,9 C 0,6 C 0,0 km/h (0 Bft)
17.03.2016 23:15 0,6 C 83 % 1024,4 hPa 0,0 l/m 0,0 km/h (0 Bft) O-NO 69 0 min 0,000 mm 0,0 UV-I 0 W/m -1,9 C 0,6 C 0,0 km/h (0 Bft)
17.03.2016 23:20 0,6 C 84 % 1024,4 hPa 0,0 l/m 0,0 km/h (0 Bft) O-NO 69 0 min 0,000 mm 0,0 UV-I 0 W/m -1,8 C 0,6 C 0,0 km/h (0 Bft)
17.03.2016 23:25 0,5 C 84 % 1024,4 hPa 0,0 l/m 0,0 km/h (0 Bft) O-NO 69 0 min 0,000 mm 0,0 UV-I 0 W/m -1,9 C 0,5 C 0,0 km/h (0 Bft)
17.03.2016 23:30 0,5 C 84 % 1024,4 hPa 0,0 l/m 0,0 km/h (0 Bft) O-NO 69 0 min 0,000 mm 0,0 UV-I 0 W/m -1,9 C 0,5 C 0,0 km/h (0 Bft)
17.03.2016 23:35 0,4 C 84 % 1024,4 hPa 0,0 l/m 0,0 km/h (0 Bft) O-NO 69 0 min 0,000 mm 0,0 UV-I 0 W/m -2,0 C 0,4 C 0,0 km/h (0 Bft)
17.03.2016 23:40 0,3 C 84 % 1024,4 hPa 0,0 l/m 0,0 km/h (0 Bft) O-NO 69 0 min 0,000 mm 0,0 UV-I 0 W/m -2,1 C 0,3 C 0,0 km/h (0 Bft)
17.03.2016 23:45 0,3 C 84 % 1024,4 hPa 0,0 l/m 0,0 km/h (0 Bft) O-NO 69 0 min 0,000 mm 0,0 UV-I 0 W/m -2,1 C 0,3 C 0,0 km/h (0 Bft)
17.03.2016 23:50 0,1 C 84 % 1024,4 hPa 0,0 l/m 0,0 km/h (0 Bft) O-NO 69 0 min 0,000 mm 0,0 UV-I 0 W/m -2,3 C 0,1 C 0,0 km/h (0 Bft)
17.03.2016 23:55 -0,1 C 85 % 1024,3 hPa 0,0 l/m 0,0 km/h (0 Bft) O-NO 69 0 min 0,000 mm 0,0 UV-I 0 W/m -2,3 C -0,1 C 0,0 km/h (0 Bft)
_ Min-Zeit 06:40 16:55 23:55 - 00:20 - - - - - - 06:40 06:40 00:20
Minimum _ -3,0 C 41 % 1024,3 hPa - 0,0 km/h (0 Bft) - - - - - - -4,4 C -3,0 C 0,0 km/h (0 Bft)
_ Max-Zeit 16:55 07:20 00:35 00:00 10:15 - - 07:30 14:05 12:25 12:40 12:40 16:50 09:10
Maximum _ 14,4 C 93 % 1029,3 hPa 0,0 l/m 9,7 km/h
O (2 Bft)
- - 5 min 0,330 mm 2,6 UV-I 634 W/m 1,5 C 14,1 C 17,7 km/h
O-NO (3 Bft)
Durchschnitt _ 4,8 C 69 % 1027,0 hPa #0,0 l/m 1,5 km/h (1 Bft) O - #10:45 h #2,311 mm 1,6 UV-I 368 W/m -0,9 C 4,7 C 4,8 km/h (1 Bft)